Kosmos-1546

operational
NORAD ID: 14867 Int'l Des: 1984-031 Owner: PVO Country: SU
HEOCIRCULARGSO

Kosmos-1546について

説明を読み込み中...

リアルタイム位置

3D地球を読み込み中...

次回通過

高度履歴

Altitude vs Time

uPlot chart will show altitude changes over time

軌道要素

1 14867U 84031A 26062.52009083 -.00000123 00000-0 00000+0 0 9991
2 14867 8.8796 312.1328 0025174 13.2173 99.6333 1.00257634 46317
Epoch: Mar 3, 2026 • Age: 21 hours

現在のステータス

高度 35868.6 km
速度 3.07 km/s
衛星直下点 -7.42°S, 75.97°E
打ち上げ日 Mar 29, 1984
運用期間 41.9 years
タイプ other

技術仕様

分類 Payload
質量 1250.00 kg
乾燥質量 1150.00 kg
総質量 1250.00 kg
長さ 4.00 m
直径 2.00 m
スパン 5.00 m
形状 Cyl + 2 Pan
製造者 NPOL/KOMET
バスタイプ Oko
フェーズステータス In Orbit
所有者/国 PVO/SU

大規模コンステレーション

Loading constellations...